Location: México DF
(19.4326°N, 99.1332°W)
Time: 03:00:36
(UTC+00:00)

ISS - Pass Details

Date: 09 May 2026
Orbit: 414 x 424 km, 51.6° (Epoch: 15 May)

Event Time Altitude Azimuth Distance (km) Brightness Sun altitude
Rises 02:32:24 0° 260° (W) 2,336 0.9 -20.4°
Reaches altitude 10° 02:35:46 10° 296° (WNW) 1,475 0.2 -21.1°
Maximum altitude 02:36:51 11° 316° (NW) 1,402 -0.1 -21.3°
Drops below altitude 10° 02:37:57 10° 335° (NNW) 1,476 -0.3 -21.6°
Sets 02:41:19 0° 12° (NNE) 2,340 0.3 -22.3°
